Time,TemperatureF,DewpointF,PressureIn,WindDirection,WindDirectionDegrees,WindSpeedMPH,WindSpeedGustMPH,Humidity,HourlyPrecipIn,Conditions,Clouds,dailyrainin,SoftwareType,DateUTC
2013-05-24 00:02:00,57.0,26.0,-100.00,South,189,12.0,19.0,30,0.00,,,-99.99,,2013-05-24 06:02:00,
2013-05-24 00:12:00,57.0,27.0,-100.00,SSW,193,12.0,19.0,31,0.00,,,-99.99,,2013-05-24 06:12:00,
2013-05-24 00:21:00,55.0,28.0,-100.00,South,186,11.0,16.0,35,0.00,,,-99.99,,2013-05-24 06:21:00,
2013-05-24 00:32:00,56.0,27.0,-100.00,SSW,192,10.0,14.0,33,0.00,,,-99.99,,2013-05-24 06:32:00,
2013-05-24 00:41:00,57.0,25.0,-100.00,South,191,12.0,19.0,28,0.00,,,-99.99,,2013-05-24 06:41:00,
2013-05-24 00:52:00,56.0,25.0,-100.00,South,191,10.0,14.0,30,0.00,,,-99.99,,2013-05-24 06:52:00,
2013-05-24 01:01:00,57.0,23.0,-100.00,South,189,11.0,15.0,27,0.00,,,-99.99,,2013-05-24 07:01:00,
2013-05-24 01:11:00,58.0,21.0,-100.00,South,181,12.0,16.0,24,0.00,,,-99.99,,2013-05-24 07:11:00,
2013-05-24 01:22:00,58.0,19.0,-100.00,SSE,168,11.0,16.0,22,0.00,,,-99.99,,2013-05-24 07:22:00,
2013-05-24 01:32:00,56.0,20.0,-100.00,South,174,12.0,16.0,24,0.00,,,-99.99,,2013-05-24 07:32:00,
2013-05-24 01:52:00,55.0,19.0,-100.00,South,175,12.0,15.0,24,0.00,,,-99.99,,2013-05-24 07:52:00,
2013-05-24 02:02:00,56.0,16.0,-100.00,South,179,12.0,15.0,21,0.00,,,-99.99,,2013-05-24 08:02:00,
2013-05-24 02:11:00,56.0,16.0,-100.00,South,178,12.0,15.0,20,0.00,,,-99.99,,2013-05-24 08:11:00,
2013-05-24 02:22:00,56.0,16.0,-100.00,South,176,13.0,15.0,20,0.00,,,-99.99,,2013-05-24 08:22:00,
2013-05-24 02:32:00,56.0,15.0,-100.00,South,178,13.0,16.0,20,0.00,,,-99.99,,2013-05-24 08:32:00,
2013-05-24 02:42:00,56.0,15.0,-100.00,South,181,14.0,16.0,20,0.00,,,-99.99,,2013-05-24 08:42:00,
2013-05-24 02:52:00,56.0,15.0,-100.00,South,182,14.0,17.0,20,0.00,,,-99.99,,2013-05-24 08:52:00,
2013-05-24 03:01:00,56.0,15.0,-100.00,South,182,14.0,16.0,20,0.00,,,-99.99,,2013-05-24 09:01:00,
2013-05-24 03:11:00,56.0,16.0,-100.00,South,182,13.0,17.0,20,0.00,,,-99.99,,2013-05-24 09:11:00,
2013-05-24 03:21:00,56.0,15.0,-100.00,South,181,12.0,14.0,20,0.00,,,-99.99,,2013-05-24 09:21:00,
2013-05-24 03:32:00,55.0,15.0,-100.00,South,178,12.0,16.0,20,0.00,,,-99.99,,2013-05-24 09:32:00,
2013-05-24 03:52:00,55.0,14.0,-100.00,South,182,12.0,16.0,19,0.00,,,-99.99,,2013-05-24 09:52:00,
2013-05-24 04:02:00,55.0,15.0,-100.00,South,182,12.0,15.0,20,0.00,,,-99.99,,2013-05-24 10:02:00,
2013-05-24 04:12:00,56.0,13.0,-100.00,South,184,13.0,16.0,17,0.00,,,-99.99,,2013-05-24 10:12:00,
2013-05-24 04:22:00,55.0,14.0,-100.00,South,181,12.0,16.0,19,0.00,,,-99.99,,2013-05-24 10:22:00,
2013-05-24 04:32:00,56.0,14.0,-100.00,South,182,11.0,16.0,19,0.00,,,-99.99,,2013-05-24 10:32:00,
2013-05-24 04:42:00,56.0,15.0,-100.00,SSW,203,14.0,28.0,20,0.00,,,-99.99,,2013-05-24 10:42:00,
2013-05-24 04:52:00,52.0,20.0,-100.00,WSW,241,20.0,26.0,28,0.00,,,-99.99,,2013-05-24 10:52:00,
2013-05-24 05:02:00,49.0,22.0,-100.00,West,281,19.0,29.0,35,0.00,,,-99.99,,2013-05-24 11:02:00,
2013-05-24 05:12:00,48.0,24.0,-100.00,WSW,253,19.0,27.0,38,0.00,,,-99.99,,2013-05-24 11:12:00,
2013-05-24 05:22:00,46.0,24.0,-100.00,WSW,237,18.0,22.0,42,0.00,,,-99.99,,2013-05-24 11:22:00,
2013-05-24 05:32:00,45.0,25.0,-100.00,SW,229,17.0,22.0,45,0.00,,,-99.99,,2013-05-24 11:32:00,
2013-05-24 05:51:00,45.0,26.0,-100.00,SW,216,18.0,24.0,47,0.00,,,-99.99,,2013-05-24 11:51:00,
2013-05-24 06:02:00,45.0,26.0,-100.00,SSW,210,19.0,26.0,47,0.00,,,-99.99,,2013-05-24 12:02:00,
2013-05-24 06:11:00,45.0,26.0,-100.00,SSW,202,19.0,24.0,48,0.00,,,-99.99,,2013-05-24 12:11:00,
2013-05-24 06:21:00,45.0,26.0,-100.00,SSW,203,19.0,24.0,48,0.00,,,-99.99,,2013-05-24 12:21:00,
2013-05-24 06:32:00,45.0,26.0,-100.00,SSW,200,19.0,24.0,48,0.00,,,-99.99,,2013-05-24 12:32:00,
2013-05-24 06:42:00,45.0,26.0,-100.00,SSW,196,18.0,24.0,48,0.00,,,-99.99,,2013-05-24 12:42:00,
2013-05-24 06:52:00,44.0,26.0,-100.00,SSW,196,17.0,22.0,48,0.00,,,-99.99,,2013-05-24 12:52:00,
2013-05-24 07:02:00,44.0,27.0,-100.00,SSW,198,17.0,22.0,50,0.00,,,-99.99,,2013-05-24 13:02:00,
2013-05-24 07:11:00,44.0,27.0,-100.00,South,191,17.0,21.0,50,0.00,,,-99.99,,2013-05-24 13:11:00,
2013-05-24 07:21:00,45.0,26.0,-100.00,SSW,193,16.0,21.0,47,0.00,,,-99.99,,2013-05-24 13:21:00,
2013-05-24 07:32:00,46.0,25.0,-100.00,SSW,203,15.0,21.0,44,0.00,,,-99.99,,2013-05-24 13:32:00,
2013-05-24 07:41:00,46.0,25.0,-100.00,SSW,206,15.0,19.0,43,0.00,,,-99.99,,2013-05-24 13:41:00,
2013-05-24 07:52:00,47.0,25.0,-100.00,SSW,213,16.0,21.0,42,0.00,,,-99.99,,2013-05-24 13:52:00,
2013-05-24 08:01:00,47.0,24.0,-100.00,SW,220,15.0,20.0,40,0.00,,,-99.99,,2013-05-24 14:01:00,
2013-05-24 08:11:00,47.0,25.0,-100.00,SW,222,16.0,21.0,41,0.00,,,-99.99,,2013-05-24 14:11:00,
2013-05-24 08:21:00,47.0,22.0,-100.00,SW,227,16.0,22.0,37,0.00,,,-99.99,,2013-05-24 14:21:00,
2013-05-24 08:32:00,48.0,22.0,-100.00,SW,234,14.0,19.0,34,0.00,,,-99.99,,2013-05-24 14:32:00,
2013-05-24 08:42:00,49.0,23.0,-100.00,SW,236,14.0,21.0,36,0.00,,,-99.99,,2013-05-24 14:42:00,
2013-05-24 08:52:00,49.0,22.0,-100.00,SW,233,13.0,17.0,34,0.00,,,-99.99,,2013-05-24 14:52:00,
2013-05-24 09:02:00,49.0,24.0,-100.00,SW,226,13.0,17.0,36,0.00,,,-99.99,,2013-05-24 15:02:00,
2013-05-24 09:11:00,49.0,21.0,-100.00,SW,224,13.0,17.0,33,0.00,,,-99.99,,2013-05-24 15:11:00,
2013-05-24 09:21:00,49.0,22.0,-100.00,WSW,239,13.0,19.0,34,0.00,,,-99.99,,2013-05-24 15:21:00,
2013-05-24 09:32:00,50.0,22.0,-100.00,WSW,248,12.0,20.0,34,0.00,,,-99.99,,2013-05-24 15:32:00,
2013-05-24 09:43:00,50.0,20.0,-100.00,WSW,246,14.0,19.0,31,0.00,,,-99.99,,2013-05-24 15:43:00,
2013-05-24 09:52:00,51.0,22.0,-100.00,WSW,248,12.0,18.0,32,0.00,,,-99.99,,2013-05-24 15:52:00,
2013-05-24 10:03:00,50.0,22.0,-100.00,WSW,251,13.0,21.0,33,0.00,,,-99.99,,2013-05-24 16:03:00,
2013-05-24 10:12:00,51.0,22.0,-100.00,WSW,253,14.0,22.0,31,0.00,,,-99.99,,2013-05-24 16:12:00,
2013-05-24 10:22:00,51.0,24.0,-100.00,WSW,258,13.0,19.0,34,0.00,,,-99.99,,2013-05-24 16:22:00,
2013-05-24 10:32:00,52.0,24.0,-100.00,WSW,254,14.0,19.0,33,0.00,,,-99.99,,2013-05-24 16:32:00,
2013-05-24 10:42:00,53.0,24.0,-100.00,WSW,254,12.0,20.0,31,0.00,,,-99.99,,2013-05-24 16:42:00,
2013-05-24 10:52:00,53.0,23.0,-100.00,WSW,251,12.0,21.0,30,0.00,,,-99.99,,2013-05-24 16:52:00,
2013-05-24 11:02:00,54.0,22.0,-100.00,WSW,251,12.0,19.0,28,0.00,,,-99.99,,2013-05-24 17:02:00,
2013-05-24 11:12:00,54.0,24.0,-100.00,SW,233,11.0,18.0,30,0.00,,,-99.99,,2013-05-24 17:12:00,
2013-05-24 11:32:00,55.0,22.0,-100.00,WSW,239,14.0,20.0,26,0.00,,,-99.99,,2013-05-24 17:32:00,
2013-05-24 11:41:00,56.0,23.0,-100.00,WSW,246,12.0,19.0,28,0.00,,,-99.99,,2013-05-24 17:41:00,
2013-05-24 11:52:00,57.0,21.0,-100.00,WSW,258,14.0,21.0,25,0.00,,,-99.99,,2013-05-24 17:52:00,
2013-05-24 12:01:00,57.0,22.0,-100.00,West,260,13.0,22.0,25,0.00,,,-99.99,,2013-05-24 18:01:00,
2013-05-24 12:11:00,57.0,20.0,-100.00,West,260,12.0,21.0,23,0.00,,,-99.99,,2013-05-24 18:11:00,
2013-05-24 12:21:00,59.0,23.0,-100.00,West,274,9.0,19.0,25,0.00,,,-99.99,,2013-05-24 18:21:00,
2013-05-24 12:32:00,58.0,23.0,-100.00,West,272,13.0,19.0,26,0.00,,,-99.99,,2013-05-24 18:32:00,
2013-05-24 12:42:00,59.0,22.0,-100.00,West,265,11.0,22.0,24,0.00,,,-99.99,,2013-05-24 18:42:00,
2013-05-24 12:51:00,60.0,25.0,-100.00,WSW,254,12.0,21.0,27,0.00,,,-99.99,,2013-05-24 18:51:00,
2013-05-24 13:01:00,61.0,22.0,-100.00,West,260,16.0,29.0,22,0.00,,,-99.99,,2013-05-24 19:01:00,
2013-05-24 13:11:00,62.0,19.0,-100.00,SW,232,19.0,29.0,19,0.00,,,-99.99,,2013-05-24 19:11:00,
2013-05-24 13:21:00,61.0,20.0,-100.00,SW,224,17.0,30.0,21,0.00,,,-99.99,,2013-05-24 19:21:00,
2013-05-24 13:32:00,62.0,20.0,-100.00,SW,220,18.0,29.0,20,0.00,,,-99.99,,2013-05-24 19:32:00,
2013-05-24 13:41:00,62.0,24.0,-100.00,SW,224,16.0,24.0,23,0.00,,,-99.99,,2013-05-24 19:41:00,
2013-05-24 13:52:00,63.0,21.0,-100.00,WSW,237,20.0,27.0,20,0.00,,,-99.99,,2013-05-24 19:52:00,
2013-05-24 14:02:00,63.0,24.0,-100.00,SW,222,19.0,26.0,22,0.00,,,-99.99,,2013-05-24 20:02:00,
2013-05-24 14:11:00,62.0,21.0,-100.00,SW,230,15.0,24.0,21,0.00,,,-99.99,,2013-05-24 20:11:00,
2013-05-24 14:21:00,62.0,21.0,-100.00,WSW,244,19.0,28.0,21,0.00,,,-99.99,,2013-05-24 20:21:00,
2013-05-24 14:32:00,62.0,20.0,-100.00,WSW,248,19.0,29.0,19,0.00,,,-99.99,,2013-05-24 20:32:00,
2013-05-24 14:41:00,63.0,19.0,-100.00,SW,233,17.0,24.0,18,0.00,,,-99.99,,2013-05-24 20:41:00,
2013-05-24 14:51:00,63.0,21.0,-100.00,SW,223,19.0,29.0,19,0.00,,,-99.99,,2013-05-24 20:51:00,
2013-05-24 15:01:00,64.0,16.0,-100.00,SW,227,16.0,23.0,15,0.00,,,-99.99,,2013-05-24 21:01:00,
2013-05-24 15:11:00,65.0,17.0,-100.00,SW,220,16.0,30.0,15,0.00,,,-99.99,,2013-05-24 21:11:00,
2013-05-24 15:21:00,65.0,18.0,-100.00,SW,220,17.0,27.0,16,0.00,,,-99.99,,2013-05-24 21:21:00,
2013-05-24 15:32:00,64.0,16.0,-100.00,SW,227,16.0,26.0,15,0.00,,,-99.99,,2013-05-24 21:32:00,
2013-05-24 15:42:00,66.0,20.0,-100.00,SW,215,15.0,27.0,17,0.00,,,-99.99,,2013-05-24 21:42:00,
2013-05-24 15:52:00,65.0,19.0,-100.00,SSW,212,18.0,28.0,17,0.00,,,-99.99,,2013-05-24 21:52:00,
2013-05-24 16:02:00,66.0,18.0,-100.00,SW,216,16.0,27.0,15,0.00,,,-99.99,,2013-05-24 22:02:00,
2013-05-24 16:12:00,67.0,17.0,-100.00,SSW,199,17.0,26.0,14,0.00,,,-99.99,,2013-05-24 22:12:00,
2013-05-24 16:22:00,66.0,15.0,-100.00,SW,219,21.0,29.0,14,0.00,,,-99.99,,2013-05-24 22:22:00,
2013-05-24 16:33:00,66.0,18.0,-100.00,SW,217,19.0,27.0,15,0.00,,,-99.99,,2013-05-24 22:33:00,
2013-05-24 16:42:00,67.0,21.0,-100.00,SSW,205,16.0,26.0,17,0.00,,,-99.99,,2013-05-24 22:42:00,
2013-05-24 16:52:00,66.0,17.0,-100.00,SSW,212,17.0,29.0,15,0.00,,,-99.99,,2013-05-24 22:52:00,
2013-05-24 17:02:00,66.0,16.0,-100.00,South,188,18.0,32.0,14,0.00,,,-99.99,,2013-05-24 23:02:00,
2013-05-24 17:11:00,67.0,18.0,-100.00,SSW,212,18.0,30.0,15,0.00,,,-99.99,,2013-05-24 23:11:00,
2013-05-24 17:22:00,66.0,18.0,-100.00,SW,223,22.0,29.0,15,0.00,,,-99.99,,2013-05-24 23:22:00,
2013-05-24 17:32:00,67.0,17.0,-100.00,SW,222,21.0,27.0,15,0.00,,,-99.99,,2013-05-24 23:32:00,
2013-05-24 17:42:00,67.0,17.0,-100.00,SW,223,19.0,28.0,14,0.00,,,-99.99,,2013-05-24 23:42:00,
2013-05-24 17:52:00,66.0,18.0,-100.00,SW,215,17.0,27.0,15,0.00,,,-99.99,,2013-05-24 23:52:00,
2013-05-24 18:01:00,67.0,17.0,-100.00,SSW,213,16.0,23.0,15,0.00,,,-99.99,,2013-05-25 00:01:00,
2013-05-24 18:11:00,67.0,19.0,-100.00,SW,226,15.0,23.0,16,0.00,,,-99.99,,2013-05-25 00:11:00,
2013-05-24 18:21:00,67.0,20.0,-100.00,SSW,212,12.0,27.0,16,0.00,,,-99.99,,2013-05-25 00:21:00,
2013-05-24 18:32:00,67.0,18.0,-100.00,SW,227,15.0,25.0,15,0.00,,,-99.99,,2013-05-25 00:32:00,
2013-05-24 18:41:00,66.0,21.0,-100.00,SW,219,14.0,19.0,17,0.00,,,-99.99,,2013-05-25 00:41:00,
2013-05-24 18:51:00,67.0,20.0,-100.00,SSW,206,12.0,19.0,17,0.00,,,-99.99,,2013-05-25 00:51:00,
2013-05-24 19:01:00,65.0,19.0,-100.00,SSW,202,12.0,21.0,17,0.00,,,-99.99,,2013-05-25 01:01:00,
2013-05-24 19:11:00,65.0,20.0,-100.00,SSW,206,9.0,13.0,17,0.00,,,-99.99,,2013-05-25 01:11:00,
2013-05-24 19:22:00,65.0,18.0,-100.00,SSW,212,12.0,20.0,16,0.00,,,-99.99,,2013-05-25 01:22:00,
2013-05-24 19:32:00,65.0,20.0,-100.00,SW,219,11.0,19.0,18,0.00,,,-99.99,,2013-05-25 01:32:00,
2013-05-24 19:41:00,64.0,20.0,-100.00,SSW,200,9.0,12.0,19,0.00,,,-99.99,,2013-05-25 01:41:00,
2013-05-24 19:52:00,63.0,21.0,-100.00,SSW,203,9.0,13.0,20,0.00,,,-99.99,,2013-05-25 01:52:00,
2013-05-24 20:01:00,63.0,21.0,-100.00,SSW,209,12.0,16.0,19,0.00,,,-99.99,,2013-05-25 02:01:00,
2013-05-24 20:11:00,63.0,23.0,-100.00,SW,219,9.0,15.0,21,0.00,,,-99.99,,2013-05-25 02:11:00,
2013-05-24 20:21:00,62.0,24.0,-100.00,WSW,240,6.0,9.0,23,0.00,,,-99.99,,2013-05-25 02:21:00,
2013-05-24 20:31:00,61.0,24.0,-100.00,SW,234,7.0,9.0,24,0.00,,,-99.99,,2013-05-25 02:31:00,
2013-05-24 20:42:00,61.0,24.0,-100.00,SW,226,6.0,7.0,24,0.00,,,-99.99,,2013-05-25 02:42:00,
2013-05-24 20:51:00,60.0,23.0,-100.00,SW,224,6.0,7.0,24,0.00,,,-99.99,,2013-05-25 02:51:00,
2013-05-24 21:01:00,60.0,22.0,-100.00,SW,224,6.0,7.0,24,0.00,,,-99.99,,2013-05-25 03:01:00,
2013-05-24 21:11:00,57.0,22.0,-100.00,SW,217,6.0,7.0,25,0.00,,,-99.99,,2013-05-25 03:11:00,
2013-05-24 21:21:00,56.0,24.0,-100.00,SSW,198,5.0,7.0,29,0.00,,,-99.99,,2013-05-25 03:21:00,
2013-05-24 21:32:00,54.0,25.0,-100.00,South,184,5.0,7.0,33,0.00,,,-99.99,,2013-05-25 03:32:00,
2013-05-24 21:43:00,54.0,25.0,-100.00,South,182,6.0,7.0,33,0.00,,,-99.99,,2013-05-25 03:43:00,
2013-05-24 21:53:00,56.0,24.0,-100.00,South,186,6.0,8.0,29,0.00,,,-99.99,,2013-05-25 03:53:00,
2013-05-24 22:02:00,55.0,24.0,-100.00,South,185,6.0,8.0,30,0.00,,,-99.99,,2013-05-25 04:02:00,
2013-05-24 22:12:00,56.0,22.0,-100.00,South,182,8.0,10.0,27,0.00,,,-99.99,,2013-05-25 04:12:00,
2013-05-24 22:23:00,57.0,23.0,-100.00,South,181,9.0,12.0,26,0.00,,,-99.99,,2013-05-25 04:23:00,
2013-05-24 22:33:00,56.0,22.0,-100.00,South,185,11.0,14.0,26,0.00,,,-99.99,,2013-05-25 04:33:00,
2013-05-24 22:43:00,57.0,22.0,-100.00,South,185,12.0,13.0,25,0.00,,,-99.99,,2013-05-25 04:43:00,
2013-05-24 22:52:00,56.0,22.0,-100.00,South,185,12.0,15.0,26,0.00,,,-99.99,,2013-05-25 04:52:00,
2013-05-24 23:02:00,55.0,22.0,-100.00,South,182,12.0,15.0,28,0.00,,,-99.99,,2013-05-25 05:02:00,
2013-05-24 23:12:00,55.0,22.0,-100.00,South,182,13.0,15.0,28,0.00,,,-99.99,,2013-05-25 05:12:00,
2013-05-24 23:22:00,55.0,20.0,-100.00,South,184,12.0,15.0,25,0.00,,,-99.99,,2013-05-25 05:22:00,
2013-05-24 23:32:00,54.0,20.0,-100.00,South,182,12.0,14.0,26,0.00,,,-99.99,,2013-05-25 05:32:00,
2013-05-24 23:42:00,54.0,20.0,-100.00,South,181,13.0,16.0,25,0.00,,,-99.99,,2013-05-25 05:42:00,
2013-05-24 23:52:00,54.0,19.0,-100.00,South,181,14.0,16.0,25,0.00,,,-99.99,,2013-05-25 05:52:00,